User: anonymous   Login
Location: Mladá Boleslav
(50.4134°N, 14.9084°E)
Time: 21:17:27
(UTC+02:00)
Language:

PCSat - Orbit

View from above orbital plane
View from above orbital plane
View from above satellite
View from above satellite

Ground track
Ground track

The orbit data is extracted from the following two-line orbital elements,

1 26931U 01043C   24140.83526021  .00000727  00000-0  30593-3 0  9996
2 26931  67.0526  44.7986 0006671 281.3838  78.6514 14.31228044182056
Epoch (UTC): 19 May 2024 20:02:46
Eccentricity: 0.0006671
inclination: 67.0526°
perigee height: 783 km
apogee height: 792 km
right ascension of ascending node: 44.7986°
argument of perigee: 281.3838°
revolutions per day: 14.31228044
mean anomaly at epoch: 78.6514°
orbit number at epoch: 18205

The dashed part of the orbit path shows where the satellite is in the earth's shadow,  

DLR